CAPE
15 8 5 8 10 8 4 0 0 0 0 0 0 0 0 0 0 0 0 0 0 0 0 0 0 0 0 0 0 0 0 0 0 0 0 0 0 0 0 0 0 0 0 0 0
1 10 8 12 10 10 5 3 0 0 0 0 0 0 0 0 0 0 0 0 0 0 0 0 0 0 0 0 0 0 0 0 0 0 0 0 0 0 0 0 0 0 0 0 41
7 3 12 15 6 5 4 4 0 0 0 0 0 0 0 0 0 0 0 0 0 0 0 0 0 0 0 0 0 0 0 0 0 0 0 0 0 0 0 0 0 0 0 0 33
10 4 7 10 9 6 5 3 0 0 0 0 0 0 0 0 0 0 0 0 0 0 0 0 0 0 0 0 0 0 0 0 0 0 0 0 0 0 0 0 0 0 0 0 0
11 10 8 4 8 7 4 2 0 0 0 0 0 0 0 0 0 0 0 0 0 0 0 0 0 0 0 0 0 0 0 0 0 0 0 0 0 0 0 0 0 0 0 0 0
13 11 9 7 4 7 4 1 0 0 0 0 0 0 0 0 0 0 0 0 0 0 0 0 0 0 0 0 0 0 0 0 0 0 0 0 0 0 0 0 0 0 0 0 0
19 11 8 5 5 4 4 1 0 0 0 0 0 0 0 0 0 0 0 0 0 0 0 0 0 0 0 0 0 0 0 0 0 0 0 0 0 0 0 0 0 0 0 0 0
35 14 6 7 4 3 2 0 0 0 0 0 0 0 0 0 0 0 0 0 0 0 0 0 0 0 0 0 0 0 0 0 0 0 0 0 0 0 0 0 0 0 0 0 0
11 7 7 8 7 5 2 0 0 0 0 0 0 0 0 0 0 0 0 0 0 0 0 0 0 0 0 0 0 0 0 0 0 0 0 0 0 0 0 0 0 0 0 0 0
9 4 4 6 10 4 1 0 0 0 0 0 0 0 0 0 0 0 0 0 0 0 0 0 0 0 0 0 0 0 0 0 0 0 0 0 0 0 0 0 0 0 0 0 0
10 11 0 5 12 2 0 0 0 0 0 0 0 0 0 0 0 0 0 0 0 0 0 0 0 0 0 0 0 0 0 0 0 0 0 0 0 0 0 0 0 0 0 0 0
29 4 14 28 18 4 0 0 0 0 0 0 0 0 0 0 0 0 0 0 0 0 0 0 0 0 0 0 0 0 0 0 0 0 0 0 0 0 0 0 0 0 0 0 0
29 53 68 68 11 1 0 0 0 0 0 0 0 0 0 0 0 0 0 0 0 0 0 0 0 0 0 0 0 0 0 0 0 0 0 0 0 0 0 0 0 0 0 0 0
47 63 54 38 13 2 0 0 0 0 0 0 0 0 0 0 0 0 0 0 0 0 0 0 0 0 0 0 0 0 0 0 0 0 0 0 0 0 0 0 0 0 0 0 0
25 37 16 4 2 6 0 0 63 0 0 0 0 0 0 0 0 0 0 0 0 0 0 0 0 0 0 0 0 0 0 0 0 0 0 0 0 0 0 0 0 0 0 0 0
3 2 3 1 0 0 0 41 10 0 0 0 0 0 0 0 0 0 0 0 0 0 0 0 0 0 0 0 0 0 0 0 0 0 0 0 0 0 0 0 0 0 0 0 0
3 2 5 0 0 0 11 0 0 0 0 0 0 0 0 0 0 0 0 0 0 0 0 0 0 0 0 0 0 0 0 0 0 0 0 0 0 0 0 0 0 0 0 0 0
2 21 7 0 0 2 4 0 0 0 0 0 0 0 0 0 0 0 0 0 0 0 0 0 0 0 0 0 0 0 0 0 0 0 0 0 0 0 0 0 0 0 0 0 0
26 51 41 15 19 4 5 0 0 0 0 0 0 0 0 0 0 0 0 0 0 0 0 0 0 0 0 0 0 0 0 0 0 0 0 0 0 0 0 0 0 0 0 0 0
0 1 16 6 73 34 5 0 0 0 0 0 0 0 0 0 0 0 0 0 0 0 0 0 0 0 0 0 0 0 0 0 0 0 0 0 0 0 0 0 0 0 0 0 0
0 0 2 1 15 22 0 0 0 0 0 0 0 0 0 0 0 0 0 0 0 0 0 0 0 0 0 0 0 0 0 0 0 0 0 0 0 0 0 0 0 0 0 0 0
8 0 0 0 0 1 0 0 0 0 0 0 0 0 0 0 0 0 0 0 0 0 0 0 0 0 0 0 0 0 0 0 0 0 0 0 0 0 0 0 0 0 0 0 0
4 3 15 0 0 0 0 0 2 0 0 0 0 0 0 0 0 0 0 0 0 0 0 0 0 0 0 0 0 0 0 0 0 0 0 0 0 0 0 0 0 0 0 0 0
0 0 2 2 2 0 0 0 0 0 0 3 0 0 0 0 0 0 0 0 0 0 0 0 0 0 0 0 0 0 0 0 0 0 0 0 0 0 0 0 0 0 0 0 0
0 0 0 0 0 0 0 0 1 0 0 1 1 6 1 0 0 0 0 0 0 0 0 0 0 0 0 0 0 0 0 0 0 0 0 0 0 0 0 0 0 0 0 0 0
0 0 0 0 2 0 0 0 0 0 0 0 0 0 0 0 0 0 0 0 0 0 0 0 0 0 0 0 0 0 0 0 0 0 0 0 0 0 0 0 0 0 0 0 0
0 0 0 0 0 0 0 0 0 0 1 1 0 0 0 0 0 0 0 0 0 0 0 0 0 0 0 0 0 0 0 0 0 0 0 0 0 0 0 0 0 0 0 0 0
CIN
-12 -7 -6 -2 0 -1 0 0 0 0 0 0 0 0 0 0 0 0 0 0 0 0 0 0 0 0 0 0 0 0 0 0 0 0 0 0 0 0 0 0 0 0 0 0 0
-19 -10 -7 -3 -2 -1 0 0 0 0 0 0 0 0 0 0 0 0 0 0 0 0 0 0 0 0 0 0 0 0 0 0 0 0 0 0 0 0 0 0 0 0 0 0 -376
-12 -17 -9 -3 -3 0 -1 0 0 0 0 0 0 0 0 0 0 0 0 0 0 0 0 0 0 0 0 0 0 0 0 0 0 0 0 0 0 0 0 0 0 0 0 0 -404
-11 -11 -12 -7 -7 -1 0 0 0 0 0 0 0 0 0 0 0 0 0 0 0 0 0 0 0 0 0 0 0 0 0 0 0 0 0 0 0 0 0 0 0 0 0 0 0
-10 -10 -10 -10 -7 -3 -1 0 0 0 0 0 0 0 0 0 0 0 0 0 0 0 0 0 0 0 0 0 0 0 0 0 0 0 0 0 0 0 0 0 0 0 0 0 0
-9 -13 -9 -8 -7 -3 -1 0 0 0 0 0 0 0 0 0 0 0 0 0 0 0 0 0 0 0 0 0 0 0 0 0 0 0 0 0 0 0 0 0 0 0 0 0 0
-102 -11 -8 -7 -5 -4 -2 0 0 0 0 0 0 0 0 0 0 0 0 0 0 0 0 0 0 0 0 0 0 0 0 0 0 0 0 0 0 0 0 0 0 0 0 0 0
-72 -10 -11 -6 -5 -5 -3 0 0 0 0 0 0 0 0 0 0 0 0 0 0 0 0 0 0 0 0 0 0 0 0 0 0 0 0 0 0 0 0 0 0 0 0 0 0
-45 -121 -8 -5 -5 -4 -3 0 0 0 0 0 0 0 0 0 0 0 0 0 0 0 0 0 0 0 0 0 0 0 0 0 0 0 0 0 0 0 0 0 0 0 0 0 0
-44 -31 -6 -4 -5 -3 -3 0 0 0 0 0 0 0 0 0 0 0 0 0 0 0 0 0 0 0 0 0 0 0 0 0 0 0 0 0 0 0 0 0 0 0 0 0 0
-32 -107 0 -164 -96 -3 0 0 0 0 0 0 0 0 0 0 0 0 0 0 0 0 0 0 0 0 0 0 0 0 0 0 0 0 0 0 0 0 0 0 0 0 0 0 0
-20 -52 -92 -73 -77 -134 0 0 0 0 0 0 0 0 0 0 0 0 0 0 0 0 0 0 0 0 0 0 0 0 0 0 0 0 0 0 0 0 0 0 0 0 0 0 0
-20 -7 -12 -33 -82 0 0 0 0 0 0 0 0 0 0 0 0 0 0 0 0 0 0 0 0 0 0 0 0 0 0 0 0 0 0 0 0 0 0 0 0 0 0 0 0
-20 -11 -1 -15 0 0 0 0 0 0 0 0 0 0 0 0 0 0 0 0 0 0 0 0 0 0 0 0 0 0 0 0 0 0 0 0 0 0 0 0 0 0 0 0 0
-10 -3 -15 -50 -7 0 0 0 -111 0 0 0 0 0 0 0 0 0 0 0 0 0 0 0 0 0 0 0 0 0 0 0 0 0 0 0 0 0 0 0 0 0 0 0 0
-38 -34 -26 -2 0 0 0 -81 -30 0 0 0 0 0 0 0 0 0 0 0 0 0 0 0 0 0 0 0 0 0 0 0 0 0 0 0 0 0 0 0 0 0 0 0 0
-37 -33 -9 -3 -1 0 -60 0 0 0 0 0 0 0 0 0 0 0 0 0 0 0 0 0 0 0 0 0 0 0 0 0 0 0 0 0 0 0 0 0 0 0 0 0 0
-30 -1 -1 0 0 -114 -52 0 0 0 0 0 0 0 0 0 0 0 0 0 0 0 0 0 0 0 0 0 0 0 0 0 0 0 0 0 0 0 0 0 0 0 0 0 0
-1 0 -1 -28 -48 -79 -16 0 0 0 0 0 0 0 0 0 0 0 0 0 0 0 0 0 0 0 0 0 0 0 0 0 0 0 0 0 0 0 0 0 0 0 0 0 0
0 0 -1 -51 -38 -20 -2 0 0 0 0 0 0 0 0 0 0 0 0 0 0 0 0 0 0 0 0 0 0 0 0 0 0 0 0 0 0 0 0 0 0 0 0 0 0
-1 0 0 -12 -33 -4 0 0 0 0 0 0 0 0 0 0 0 0 0 0 0 0 0 0 0 0 0 0 0 0 0 0 0 0 0 0 0 0 0 0 0 0 0 0 0
-2 0 0 0 0 0 0 0 0 0 0 0 0 0 0 0 0 0 0 0 0 0 0 0 0 0 0 0 0 0 0 0 0 0 0 0 0 0 0 0 0 0 0 0 0
0 0 -1 0 0 0 0 0 -2 0 0 0 0 0 0 0 0 0 0 0 0 0 0 0 0 0 0 0 0 0 0 0 0 0 0 0 0 0 0 0 0 0 0 0 0
0 0 0 0 0 0 0 0 0 0 0 -35 0 0 0 0 0 0 0 0 0 0 0 0 0 0 0 0 0 0 0 0 0 0 0 0 0 0 0 0 0 0 0 0 0
0 0 0 0 0 0 0 0 0 0 0 -31 -21 -17 -22 0 0 0 0 0 0 0 0 0 0 0 0 0 0 0 0 0 0 0 0 0 0 0 0 0 0 0 0 0 0
0 0 0 0 0 0 0 0 0 0 -2 0 0 0 0 -10 0 0 0 0 0 0 0 0 0 0 0 0 0 0 0 0 0 0 0 0 0 0 0 0 0 0 0 0 0
0 0 0 0 0 0 0 0 0 0 0 0 0 0 0 0 0 0 0 0 0 0 0 0 0 0 0 0 0 0 0 0 0 0 0 0 0 0 0 0 0 0 0 0 0
Wind_Speed
32 30 31 31 30 29 29 29 26 23 23 19 17 13 16 16 15 14 19 20 23 23 17 18 16 17 16 18 17 16 17 16 17 15 15 16 15 13 13 6 10 7 11 12 15
32 30 30 29 30 27 28 28 26 25 25 23 20 17 17 17 15 22 24 25 25 19 19 20 18 17 18 19 19 19 19 19 17 18 16 16 17 11 12 9 9 9 10 8 15
32 31 31 28 29 28 27 28 26 26 25 23 20 19 18 18 11 17 24 26 21 17 18 19 18 18 20 19 22 21 21 19 17 18 15 12 16 15 14 22 15 15 14 12 14
32 30 30 28 27 26 27 27 25 26 26 24 22 22 20 19 12 16 20 19 18 17 15 17 19 20 21 21 22 22 21 19 17 17 14 11 13 14 16 20 19 23 11 13 15
32 31 30 29 26 26 26 25 24 24 26 24 23 23 20 15 13 18 17 16 15 19 19 18 19 20 23 22 21 23 22 19 17 17 14 13 17 19 22 24 20 14 7 14 14
32 31 29 28 26 24 24 23 24 23 26 24 23 23 21 17 21 17 15 18 18 18 17 18 18 17 19 21 22 21 22 20 20 19 18 18 19 20 21 20 16 12 8 11 14
30 30 29 28 26 25 24 23 23 22 23 23 23 23 25 25 20 18 14 19 19 18 19 17 15 19 17 19 19 17 24 22 22 23 21 21 23 24 24 19 15 8 4 8 13
27 27 25 28 27 24 24 22 21 21 22 21 22 24 27 24 20 19 16 17 17 16 16 13 13 14 17 15 18 22 22 27 24 24 23 23 29 22 24 23 20 15 9 1 9
18 21 21 24 25 23 21 20 20 19 19 19 23 25 29 21 25 20 18 17 17 15 14 13 15 19 19 21 24 25 28 30 25 24 23 24 26 23 21 20 21 21 15 14 10
22 19 20 20 23 21 21 18 18 17 18 19 22 25 27 27 24 22 19 15 17 16 17 20 20 23 24 26 35 29 29 26 28 25 26 27 33 25 21 22 20 21 21 18 18
22 19 16 21 19 22 20 19 23 26 27 29 28 27 23 21 20 23 20 17 16 18 21 22 23 27 29 26 24 23 28 29 26 24 27 31 34 33 28 26 26 25 24 23 24
25 23 21 19 21 22 24 25 25 24 31 28 24 26 21 21 22 23 20 21 20 24 21 22 29 23 23 24 25 28 29 29 26 24 26 29 36 34 31 29 27 26 26 25 24
23 23 20 18 18 23 25 22 20 20 25 30 28 29 25 21 25 27 23 23 24 23 25 27 25 22 24 27 28 30 31 29 29 26 26 31 38 35 28 27 27 24 23 22 22
24 23 21 20 29 24 27 19 20 21 27 31 35 31 27 23 27 23 25 24 25 27 23 27 24 21 27 31 27 31 27 25 26 29 34 26 40 31 26 28 26 24 21 20 18
27 24 24 24 25 33 25 21 21 19 39 25 29 24 26 30 24 27 25 25 28 25 25 28 25 23 25 27 23 30 22 24 27 30 32 33 35 34 27 30 24 19 17 16 16
30 29 26 26 26 24 17 16 18 28 44 29 26 30 28 33 30 25 27 23 23 26 27 27 24 25 26 23 21 14 17 19 23 27 39 34 33 37 30 26 20 17 16 15 14
32 30 31 27 25 21 21 17 28 38 25 29 31 33 32 33 30 30 33 33 33 34 35 30 30 25 22 23 22 22 18 29 33 32 37 27 29 38 26 21 19 15 14 14 14
35 32 29 29 22 24 25 23 36 36 32 19 24 24 38 31 33 32 33 39 38 34 33 38 40 30 27 27 27 25 25 28 36 36 35 27 36 32 25 23 19 13 11 12 12
32 31 30 30 27 27 27 37 40 32 32 23 19 26 31 32 33 33 35 40 39 37 38 37 40 29 29 26 21 30 33 24 27 28 32 30 33 34 24 22 18 14 13 13 13
26 26 33 34 35 30 33 40 36 27 20 23 31 29 34 31 32 37 37 38 38 38 34 33 36 32 28 25 27 30 21 31 31 38 41 37 39 35 26 22 18 16 13 13 12
22 29 27 35 37 32 37 36 31 27 24 28 31 32 34 33 33 35 37 33 36 33 34 31 34 33 29 37 34 29 33 30 28 33 38 42 43 32 27 20 17 15 13 12 11
24 30 22 28 34 37 39 38 31 31 27 30 30 31 30 30 32 32 36 39 30 31 38 32 33 38 38 30 30 34 36 33 39 41 39 39 47 26 22 15 14 14 13 12 11
22 25 16 27 35 37 30 31 29 29 30 29 31 31 27 28 32 35 33 34 28 30 34 34 38 40 39 37 33 37 37 38 36 34 42 42 52 30 25 20 17 15 14 13 12
21 24 20 26 25 30 31 35 32 29 27 26 28 27 30 34 34 34 37 29 28 31 29 27 37 45 50 45 35 42 37 36 38 45 46 45 49 35 27 22 19 17 15 14 13
23 24 25 28 25 27 27 30 36 35 31 30 31 33 29 31 33 36 31 30 27 28 28 27 39 40 43 37 34 37 38 36 40 41 43 47 47 42 32 27 24 21 18 17 16
25 25 23 22 21 22 24 31 32 32 34 40 40 34 32 33 31 33 28 29 26 26 26 27 33 34 43 39 41 44 42 38 39 41 44 46 53 40 32 27 25 22 20 20 18
22 20 23 25 25 26 28 26 26 26 31 30 38 37 39 37 30 29 28 28 27 28 29 30 34 35 44 34 37 50 48 43 41 40 38 45 41 34 31 27 26 23 22 20 17
Wind_Direction
238 238 238 237 238 237 236 237 238 239 243 248 253 265 264 266 277 274 255 248 239 244 249 242 240 237 238 236 240 245 244 245 242 243 250 240 249 262 264 353 291 4 296 283 100
236 237 238 237 237 237 235 236 236 237 240 242 247 255 257 260 268 254 243 236 238 245 238 236 235 234 236 238 242 242 242 244 248 245 250 243 245 266 275 300 315 321 320 339 104
234 234 236 236 237 236 235 235 235 234 236 239 244 246 249 250 285 264 242 234 241 243 241 239 237 239 238 240 242 242 244 246 251 251 255 253 254 261 265 235 172 129 119 92 112
234 233 234 235 236 236 234 234 234 233 235 235 239 238 239 245 263 262 245 239 241 241 241 237 237 237 238 238 244 244 248 249 254 255 258 258 266 272 268 251 253 204 115 115 126
233 231 230 231 234 235 235 234 232 232 233 234 235 234 239 252 261 249 246 241 242 237 237 238 236 239 239 243 244 246 246 252 255 256 259 263 261 263 250 244 263 294 97 136 132
231 229 229 231 231 233 235 234 233 232 233 234 233 234 243 248 245 250 246 240 241 240 241 240 242 247 246 247 246 248 247 250 254 256 259 263 267 266 263 274 283 306 116 137 148
230 228 226 228 230 230 232 232 233 233 236 235 234 236 239 243 247 245 248 243 242 243 238 244 249 247 250 246 251 251 247 253 255 257 262 263 265 265 263 283 294 312 337 139 157
227 225 224 225 226 226 228 230 233 234 237 238 238 238 240 245 247 244 245 245 244 247 245 250 253 250 256 252 254 249 254 248 257 258 263 263 262 275 271 273 281 295 308 333 164
218 219 218 222 222 222 224 226 230 235 239 240 239 238 240 247 239 243 243 240 239 245 250 251 254 250 250 245 248 251 250 250 258 261 264 264 268 275 281 283 280 283 297 299 303
220 217 215 216 218 216 217 220 227 234 238 242 245 240 244 240 239 239 243 237 241 236 240 245 248 245 246 243 242 249 252 257 257 264 264 266 263 274 280 281 284 286 288 295 298
219 215 206 214 208 208 203 214 222 233 232 233 238 240 243 243 240 236 239 239 242 243 242 247 244 241 243 248 254 259 256 258 265 269 267 266 265 268 275 279 279 282 287 290 290
219 215 211 202 209 207 214 227 230 240 231 239 245 241 248 240 239 235 235 239 239 239 243 247 247 251 249 252 256 256 257 260 266 273 271 272 268 272 274 277 281 286 288 291 294
209 206 185 188 199 212 222 233 237 238 242 239 243 240 244 242 241 233 234 241 240 240 242 246 257 249 251 251 252 255 257 262 266 273 277 277 272 273 279 280 283 289 293 298 298
201 192 186 191 216 216 224 232 239 243 244 244 238 244 241 242 244 241 237 242 246 241 243 252 254 251 251 251 254 256 263 267 267 268 266 279 266 276 281 280 282 288 294 300 305
203 191 182 189 221 220 223 229 240 250 240 246 236 246 238 236 239 238 240 245 241 242 244 249 248 247 254 256 256 261 267 267 269 269 271 270 272 274 282 277 283 293 297 303 308
202 195 189 210 225 220 199 212 231 232 238 245 239 234 231 236 240 237 238 247 248 245 250 252 258 254 255 260 256 256 269 276 275 273 267 269 268 272 275 281 286 292 298 304 310
194 193 192 207 217 194 189 205 230 236 247 244 240 235 231 236 236 236 232 233 236 239 242 249 251 256 255 251 254 256 254 264 265 265 267 276 272 270 282 288 289 287 294 303 309
192 190 195 215 201 190 198 209 239 240 238 256 242 235 236 235 241 237 234 236 240 242 244 243 249 247 251 254 250 249 252 260 265 267 270 277 271 275 284 284 289 290 294 304 312
182 194 208 218 200 192 198 224 238 244 235 241 238 234 240 239 241 238 236 239 238 237 243 246 250 256 253 257 248 255 254 263 269 277 274 275 277 279 282 281 281 282 287 295 305
206 208 213 215 207 201 208 233 241 246 239 236 242 242 240 237 240 237 237 243 243 238 246 252 253 257 256 259 259 258 251 259 264 265 268 272 273 273 276 275 274 273 277 287 298
211 208 225 218 209 199 215 234 239 246 245 242 245 247 247 242 242 242 245 251 241 239 243 248 255 258 253 252 251 255 255 262 266 265 269 272 273 280 273 267 261 264 272 281 291
220 217 233 195 205 219 227 235 239 239 249 247 250 251 247 242 241 244 245 247 247 238 239 246 256 256 254 264 262 258 257 254 260 262 266 270 270 285 282 269 260 263 271 281 292
225 222 227 204 218 220 232 234 238 237 242 244 246 247 251 245 248 246 250 249 249 241 241 240 250 253 258 261 263 257 256 256 260 267 262 266 269 279 280 272 265 263 270 277 286
235 225 228 222 234 224 230 234 236 243 244 249 248 250 247 247 249 250 247 253 250 248 249 240 251 247 251 259 259 257 258 257 257 261 264 264 270 276 276 270 264 265 266 269 276
238 234 232 224 230 230 235 240 237 239 247 246 248 247 246 249 249 249 249 251 254 251 246 247 252 253 257 263 264 263 259 255 254 254 261 265 269 270 269 266 262 262 261 264 271
239 237 240 241 231 236 239 242 239 243 246 245 247 246 250 252 252 248 248 248 252 251 246 250 258 259 260 263 261 263 263 259 253 256 263 269 270 275 272 271 264 257 257 260 262
248 251 244 240 237 237 241 244 248 247 252 255 249 249 249 251 258 261 260 256 255 251 248 250 257 262 262 264 266 263 257 260 263 261 261 263 248 275 273 264 257 252 251 252 254